| time (UTC) | temp F | wind direction | speed MPH | gust MPH | rain 1hr in | rain 24hr in | rain mn in | humidity % | barometer mb |
| 20260906084532 | 64 | 224 | 0.0 | 0.0 | 0.00 | 0.00 | 0.00 | 75 | 1015.9 |
| 20260906083028 | 63 | 303 | 0.0 | 0.0 | 0.00 | 0.00 | 0.00 | 80 | 1015.7 |
| 20260906080032 | 61 | 287 | 0.0 | 0.0 | 0.00 | 0.00 | 0.00 | 86 | 1015.6 |
| 20260906074527 | 61 | 218 | 0.0 | 0.0 | 0.00 | 0.00 | 0.00 | 89 | 1015.4 |
| 20260906073022 | 59 | 210 | 0.0 | 0.0 | 0.00 | 0.00 | 0.00 | 92 | 1015.3 |
| 20260906070013 | 57 | 209 | 0.0 | 0.0 | 0.00 | 0.00 | 0.00 | 94 | 1014.8 |
| 20260906064512 | 56 | 131 | 0.0 | 0.0 | 0.00 | 0.00 | 0.00 | 95 | 1014.8 |
| 20260906063009 | 55 | 130 | 0.0 | 0.0 | 0.00 | 0.00 | 0.00 | 95 | 1014.7 |
| 20260906060059 | 50 | 130 | 0.0 | 0.0 | 0.00 | 0.00 | 0.00 | 95 | 1014.5 |
| 20260906054558 | 48 | 130 | 0.0 | 0.0 | 0.00 | 0.00 | 0.00 | 94 | 1014.3 |
| 20260906053056 | 48 | 129 | 0.0 | 0.0 | 0.00 | 0.00 | 0.00 | 94 | 1014.1 |
| 20260906051655 | 47 | 130 | 0.0 | 0.0 | 0.00 | 0.00 | 0.00 | 94 | 1013.9 |
| 20260906050056 | 47 | 130 | 0.0 | 0.0 | 0.00 | 0.00 | 0.00 | 94 | 1013.7 |
| 20260906044554 | 47 | 131 | 0.0 | 0.0 | 0.00 | 0.00 | 0.00 | 94 | 1013.7 |
| 20260906043053 | 47 | 130 | 0.0 | 0.0 | 0.00 | 0.00 | 0.00 | 94 | 1013.4 |
| 20260906041651 | 47 | 131 | 0.0 | 0.0 | 0.00 | 0.00 | 0.00 | 94 | 1013.0 |
| 20260906040050 | 47 | 131 | 0.0 | 0.0 | 0.00 | 0.00 | 0.00 | 94 | 1012.9 |
| 20260906034550 | 47 | 131 | 0.0 | 0.0 | 0.00 | 0.00 | 0.00 | 94 | 1012.8 |
| 20260906033052 | 47 | 130 | 0.0 | 0.0 | 0.00 | 0.00 | 0.00 | 94 | 1012.8 |
| 20260906031647 | 47 | 130 | 0.0 | 0.0 | 0.00 | 0.00 | 0.00 | 93 | 1012.5 |
| 20260906030045 | 47 | 130 | 0.0 | 0.0 | 0.00 | 0.00 | 0.00 | 93 | 1012.3 |
| 20260906024542 | 48 | 131 | 0.0 | 0.0 | 0.00 | 0.00 | 0.00 | 93 | 1012.1 |
| 20260906023041 | 48 | 130 | 0.0 | 0.0 | 0.00 | 0.00 | 0.00 | 93 | 1011.9 |
| 20260906021641 | 48 | 130 | 0.0 | 0.0 | 0.00 | 0.00 | 0.00 | 93 | 1011.8 |
| 20260906020040 | 48 | 130 | 0.0 | 0.0 | 0.00 | 0.00 | 0.00 | 93 | 1011.8 |
| 20260906014540 | 48 | 130 | 0.0 | 0.0 | 0.00 | 0.00 | 0.00 | 93 | 1011.7 |
| 20260906013038 | 48 | 112 | 0.0 | 0.0 | 0.00 | 0.00 | 0.00 | 93 | 1011.5 |
| 20260906011638 | 48 | 111 | 0.0 | 0.0 | 0.00 | 0.00 | 0.00 | 93 | 1011.2 |
| 20260906010036 | 48 | 113 | 0.0 | 0.0 | 0.00 | 0.00 | 0.00 | 93 | 1011.1 |
| 20260906004534 | 48 | 112 | 0.0 | 0.0 | 0.00 | 0.00 | 0.00 | 93 | 1011.0 |
| 20260906003033 | 48 | 111 | 0.0 | 0.0 | 0.00 | 0.00 | 0.00 | 93 | 1010.8 |
| 20260906001533 | 48 | 111 | 0.0 | 0.0 | 0.00 | 0.00 | 0.00 | 93 | 1010.6 |
| 20260906000031 | 48 | 264 | 0.0 | 0.0 | 0.00 | 0.00 | 0.00 | 93 | 1010.6 |
| 20260905234631 | 48 | 265 | 0.0 | 0.0 | 0.00 | 0.00 | 0.00 | 93 | 1010.5 |
| 20260905233030 | 48 | 263 | 0.0 | 0.0 | 0.00 | 0.00 | 0.00 | 93 | 1010.4 |
| 20260905231528 | 48 | 264 | 0.0 | 0.0 | 0.00 | 0.00 | 0.00 | 93 | 1010.2 |
| 20260905230029 | 48 | 264 | 0.0 | 0.0 | 0.00 | 0.00 | 0.00 | 92 | 1009.9 |
| 20260905224625 | 49 | 264 | 0.0 | 0.0 | 0.00 | 0.00 | 0.00 | 93 | 1009.8 |
| 20260905223023 | 49 | 263 | 0.0 | 0.0 | 0.00 | 0.00 | 0.00 | 92 | 1009.7 |
| 20260905221521 | 49 | 264 | 0.0 | 0.0 | 0.00 | 0.00 | 0.00 | 92 | 1009.5 |
| 20260905220019 | 49 | 264 | 0.0 | 0.0 | 0.00 | 0.00 | 0.00 | 92 | 1009.2 |
| 20260905214618 | 49 | 264 | 0.0 | 0.0 | 0.00 | 0.00 | 0.27 | 92 | 1008.9 |
| 20260905213017 | 50 | 263 | 0.0 | 0.0 | 0.00 | 0.00 | 0.27 | 92 | 1008.8 |
| 20260905211515 | 50 | 264 | 0.0 | 0.0 | 0.00 | 0.00 | 0.27 | 92 | 1008.6 |
| 20260905210012 | 50 | 263 | 0.0 | 0.0 | 0.00 | 0.00 | 0.27 | 91 | 1008.3 |
| 20260905204610 | 50 | 264 | 0.0 | 0.0 | 0.00 | 0.00 | 0.27 | 91 | 1008.0 |
| 20260905203008 | 51 | 263 | 0.0 | 0.0 | 0.00 | 0.00 | 0.27 | 91 | 1007.9 |
| 20260905201507 | 51 | 263 | 0.0 | 0.0 | 0.00 | 0.00 | 0.27 | 91 | 1007.7 |
| 20260905200004 | 51 | 263 | 0.0 | 0.0 | 0.00 | 0.00 | 0.27 | 91 | 1007.5 |
| 20260905194605 | 52 | 264 | 0.0 | 0.0 | 0.00 | 0.00 | 0.27 | 90 | 1007.1 |
| 20260905193005 | 52 | 265 | 0.0 | 0.0 | 0.00 | 0.00 | 0.27 | 90 | 1007.0 |
| 20260905191501 | 53 | 264 | 0.0 | 0.0 | 0.00 | 0.00 | 0.27 | 90 | 1006.6 |
| 20260905190100 | 53 | 264 | 0.0 | 0.0 | 0.00 | 0.00 | 0.27 | 89 | 1006.4 |
| 20260905184601 | 54 | 265 | 0.0 | 0.0 | 0.00 | 0.00 | 0.27 | 89 | 1005.9 |
| 20260905183059 | 55 | 360 | 0.0 | 0.0 | 0.00 | 0.00 | 0.27 | 89 | 1005.8 |
| 20260905181608 | 56 | 264 | 0.0 | 0.0 | 0.00 | 0.00 | 0.27 | 88 | 1005.5 |
| 20260905180052 | 56 | 263 | 0.0 | 0.0 | 0.00 | 0.00 | 0.27 | 88 | 1005.1 |
| 20260905174553 | 57 | 264 | 0.0 | 0.0 | 0.00 | 0.00 | 0.26 | 88 | 1004.5 |
| 20260905173047 | 57 | 360 | 0.0 | 0.0 | 0.00 | 0.00 | 0.26 | 88 | 1004.4 |
| 20260905171546 | 57 | 265 | 0.0 | 0.0 | 0.00 | 0.00 | 0.26 | 88 | 1004.0 |
| 20260905170044 | 57 | 264 | 0.0 | 0.0 | 0.00 | 0.00 | 0.26 | 87 | 1003.8 |
| 20260905164543 | 57 | 265 | 0.0 | 0.0 | 0.00 | 0.00 | 0.26 | 86 | 1003.5 |
| 20260905163044 | 58 | 360 | 0.0 | 0.0 | 0.00 | 0.00 | 0.26 | 86 | 1003.4 |
| 20260905161542 | 57 | 360 | 0.0 | 0.0 | 0.00 | 0.00 | 0.26 | 87 | 1003.2 |
| 20260905160108 | 56 | 360 | 0.0 | 0.0 | 0.00 | 0.00 | 0.26 | 86 | 1002.9 |
| 20260905154542 | 57 | 334 | 0.0 | 0.0 | 0.00 | 0.00 | 0.25 | 82 | 1002.7 |
| 20260905153037 | 58 | 334 | 0.0 | 0.0 | 0.00 | 0.00 | 0.24 | 80 | 1002.6 |
| 20260905151537 | 60 | 336 | 0.0 | 0.0 | 0.00 | 0.00 | 0.23 | 81 | 1002.3 |
| 20260905150035 | 61 | 218 | 0.0 | 0.0 | 0.00 | 0.00 | 0.23 | 80 | 1002.2 |
| 20260905144534 | 63 | 360 | 0.0 | 0.0 | 0.00 | 0.00 | 0.22 | 76 | 1001.9 |
| 20260905143036 | 63 | 215 | 0.0 | 0.0 | 0.00 | 0.00 | 0.22 | 75 | 1002.0 |
| 20260905141540 | 62 | 302 | 0.0 | 0.0 | 0.00 | 0.00 | 0.22 | 77 | 1001.8 |
| 20260905140036 | 64 | 21 | 0.0 | 0.0 | 0.00 | 0.00 | 0.22 | 73 | 1001.7 |
| 20260905134536 | 64 | 233 | 0.0 | 0.0 | 0.00 | 0.00 | 0.22 | 73 | 1001.5 |
| 20260905133034 | 64 | 237 | 0.0 | 0.0 | 0.00 | 0.00 | 0.22 | 72 | 1001.4 |
| 20260905131532 | 64 | 284 | 0.0 | 0.0 | 0.00 | 0.00 | 0.22 | 70 | 1001.4 |
| 20260905130031 | 63 | 130 | 0.0 | 0.0 | 0.00 | 0.00 | 0.22 | 73 | 1001.4 |
| 20260905124538 | 63 | 233 | 0.0 | 0.0 | 0.00 | 0.00 | 0.22 | 75 | 1001.1 |
| 20260905123027 | 64 | 226 | 0.0 | 0.0 | 0.00 | 0.00 | 0.22 | 72 | 1001.1 |
| 20260905121527 | 63 | 254 | 0.0 | 0.0 | 0.00 | 0.00 | 0.22 | 75 | 1001.0 |
| 20260905120027 | 65 | 248 | 0.0 | 0.0 | 0.00 | 0.00 | 0.22 | 73 | 1001.0 |
| 20260905114527 | 64 | 254 | 0.0 | 0.0 | 0.00 | 0.00 | 0.22 | 73 | 1000.9 |
| 20260905113026 | 65 | 241 | 0.0 | 0.0 | 0.00 | 0.00 | 0.22 | 73 | 1000.7 |
| 20260905111522 | 64 | 242 | 0.0 | 0.0 | 0.00 | 0.00 | 0.22 | 74 | 1000.8 |
| 20260905110021 | 63 | 254 | 0.0 | 0.0 | 0.00 | 0.00 | 0.22 | 75 | 1000.5 |
| 20260905104518 | 61 | 221 | 0.0 | 0.0 | 0.00 | 0.00 | 0.22 | 77 | 1000.4 |
| 20260905103024 | 60 | 294 | 0.0 | 0.0 | 0.00 | 0.00 | 0.22 | 78 | 1000.4 |
| 20260905101517 | 60 | 261 | 0.0 | 0.0 | 0.00 | 0.00 | 0.22 | 78 | 1000.2 |
| 20260905100014 | 61 | 234 | 0.0 | 0.0 | 0.00 | 0.00 | 0.22 | 80 | 1000.1 |
| 20260905094514 | 61 | 264 | 0.0 | 0.0 | 0.00 | 0.00 | 0.22 | 80 | 1000.1 |
| 20260905093014 | 61 | 251 | 0.0 | 0.0 | 0.00 | 0.00 | 0.22 | 80 | 1000.1 |
| 20260905091529 | 60 | 360 | 0.0 | 0.0 | 0.00 | 0.00 | 0.22 | 83 | 999.9 |
| 20260905090008 | 60 | 216 | 0.0 | 0.0 | 0.00 | 0.00 | 0.22 | 87 | 999.8 |